TGZ651 UGTB-EHAM

Flight info

Callsign TGZ651
Flight time N/A
Altitude 34000
Route DF DCT BARUS N11 ROLIN UN644 SIN UW90 INB UL746 ODERO DCT OPT DCT ALOXU DCT TUVNU/N0457F360 DCT FOGRE DCT MAVOR DCT KATQA DCT ELMEK DCT VEXIL DCT KATCE DCT NORKU
Aircraft B738/M-SDE2E3FGHIRWXY/LB1

Departure

Time 2026-04-30 22:43
Airport Tbilisi International Airport (UGTB)

Arrival

Time N/A
Airport Amsterdam Airport Schiphol (EHAM)
Time Latitude Longitude Altitude Speed Heading
2026-04-30 22:28 41.66893 44.96331 1575 ft 0 kts 43°
2026-04-30 22:33 41.66882 44.96317 1574 ft 2 kts 43°
2026-04-30 22:33 41.66860 44.96290 1571 ft 2 kts 43°
2026-04-30 22:34 41.66825 44.96273 1569 ft 2 kts 335°
2026-04-30 22:35 41.66811 44.96288 1568 ft 0 kts 313°
2026-04-30 22:36 41.66811 44.96287 1568 ft 0 kts 313°
2026-04-30 22:37 41.66869 44.96207 1569 ft 7 kts 313°
2026-04-30 22:38 41.67006 44.96015 1572 ft 17 kts 314°
2026-04-30 22:38 41.67162 44.95765 1573 ft 18 kts 314°
2026-04-30 22:39 41.67246 44.95648 1575 ft 16 kts 313°
2026-04-30 22:39 41.67448 44.95354 1583 ft 12 kts 310°
2026-04-30 22:40 41.67657 44.94945 1592 ft 23 kts 254°
2026-04-30 22:41 41.67715 44.94390 1589 ft 19 kts 319°
2026-04-30 22:41 41.67819 44.94094 1584 ft 22 kts 234°
2026-04-30 22:42 41.66450 44.95703 1564 ft 168 kts 135°
2026-04-30 22:43 41.64669 44.97883 2784 ft 178 kts 135°
2026-04-30 22:43 41.62790 45.00343 3403 ft 204 kts 134°
2026-04-30 22:44 41.60566 45.03217 4034 ft 236 kts 135°
2026-04-30 22:45 41.53903 45.04008 5964 ft 275 kts 211°
2026-04-30 22:45 41.51725 44.99942 7258 ft 278 kts 256°
2026-04-30 22:46 41.51921 44.94881 8513 ft 282 kts 296°
2026-04-30 22:47 41.58038 44.88096 10589 ft 305 kts 323°
2026-04-30 22:47 41.61689 44.84718 11155 ft 333 kts 323°
2026-04-30 22:48 41.65586 44.81084 12039 ft 349 kts 322°
2026-04-30 22:49 41.71611 44.75460 13974 ft 355 kts 322°
2026-04-30 22:49 41.77768 44.69689 15843 ft 364 kts 321°
2026-04-30 22:50 41.86177 44.61779 18119 ft 377 kts 320°
2026-04-30 22:51 41.89800 44.56813 19234 ft 372 kts 298°
2026-04-30 22:51 41.91540 44.50366 20274 ft 371 kts 278°
2026-04-30 22:52 41.91799 44.46888 20758 ft 373 kts 271°
2026-04-30 22:52 41.91808 44.39941 21723 ft 378 kts 269°
2026-04-30 22:53 41.91711 44.32888 22674 ft 382 kts 268°
2026-04-30 22:53 41.91646 44.25704 23623 ft 386 kts 268°
2026-04-30 22:53 41.91625 44.22125 24094 ft 388 kts 268°
2026-04-30 22:54 41.91594 44.14824 24972 ft 392 kts 269°
2026-04-30 22:55 41.91552 44.03809 26208 ft 398 kts 269°
2026-04-30 22:55 41.91516 43.96346 26940 ft 403 kts 269°
2026-04-30 22:56 41.91476 43.88797 27645 ft 408 kts 269°
2026-04-30 22:56 41.91404 43.77316 28665 ft 414 kts 269°
2026-04-30 22:57 41.91347 43.69555 29351 ft 417 kts 269°
2026-04-30 22:57 41.91286 43.61785 30202 ft 415 kts 269°
2026-04-30 22:58 41.91220 43.54147 31107 ft 410 kts 269°
2026-04-30 22:59 41.91114 43.42719 32197 ft 407 kts 269°
2026-04-30 22:59 41.90997 43.31383 33214 ft 404 kts 268°